www.pogodaiklimat.ru
ПОГОДА в Делано
Время
и дата
15:35 20.07
15:55 20.07
16:15 20.07
16:35 20.07
16:55 20.07
17:15 20.07
17:35 20.07
17:55 20.07
18:15 20.07
18:35 20.07
18:55 20.07
19:15 20.07
19:35 20.07
19:55 20.07
20:15 20.07
20:35 20.07
20:55 20.07
21:15 20.07
21:35 20.07
21:55 20.07
22:15 20.07
22:35 20.07
22:55 20.07
23:15 20.07
23:35 20.07
23:55 20.07
00:15 21.07
00:35 21.07
00:55 21.07
01:15 21.07
01:35 21.07
01:55 21.07
02:15 21.07
02:35 21.07
02:55 21.07
03:15 21.07
03:35 21.07
03:55 21.07
04:15 21.07
04:35 21.07
04:55 21.07
05:15 21.07
05:35 21.07
05:55 21.07
06:15 21.07
06:35 21.07
06:55 21.07
07:15 21.07
Ветер
(напр.,м/с)
Видим. Явления Облачность Т
(С)
Тd
(С)
f
(%)
Тe
(С)
Тes
(С)
Комфортность P
(гПа)
Po
(гПа)
Тmin
(С)
Tmax
(С)
R
(мм)
R24
(мм)
S
(см)
СВ 3 16 км ясно +37.6 +13.8 24 +38 +48 очень
жарко
997.1
СВ 4 16 км ясно +37.9 +13.3 23 +38 +46 очень
жарко
997.1 +33.5 +39.1
СВ 3 16 км ясно +37.6 +12.2 22 +37 +43 очень
жарко
996.8
СВ 3 16 км ясно +37.4 +12.8 23 +37 +43 очень
жарко
996.8
С 4 16 км ясно +38.1 +9.7 18 +37 +42 очень
жарко
996.8
СВ 3 16 км ясно +37.8 +10.2 19 +37 +39 очень
жарко
996.8
СВ 3 16 км ясно +36.4 +13.9 26 +37 +40 очень
жарко
996.8
СВ 3 16 км ясно +36.8 +10.3 20 +36 +38 очень
жарко
996.8
СВ 2 16 км ясно +36.4 +11.1 22 +36 +37 очень
жарко
996.8
С 3 16 км ясно +36.0 +11.4 23 +36 +36 очень
жарко
997.1
С 2 16 км ясно +35.9 +11.6 23 +35 +36 очень
жарко
997.1
С 2 16 км ясно +34.5 +12.9 27 +35 +35 очень
жарко
997.5
З 3 16 км ясно +32.6 +13.2 31 +34 +34 очень
жарко
997.8
З 5 16 км ясно +31.8 +10.4 27 +32 +32 жарко 997.8
З 4 16 км ясно +31.1 +6.9 22 +30 +30 жарко 998.1
З 3 16 км ясно +30.2 +5.2 21 +29 +29 жарко 998.1
З 2 16 км ясно +29.5 +4.9 21 +28 +28 жарко 998.1
СЗ 2 16 км ясно +29.0 +5.1 22 +28 +28 жарко 998.5
штиль 0 16 км ясно +28.5 +5.1 23 +27 +27 жарко 998.8
штиль 0 16 км ясно +28.6 +5.0 22 +27 +27 жарко 998.8 +28.5 +38.4
штиль 0 16 км ясно +27.9 +6.1 25 +27 +27 жарко 999.1
штиль 0 16 км ясно +27.5 +7.5 28 +27 +27 жарко 999.1
штиль 0 16 км ясно +27.2 +9.3 32 +27 +27 жарко 999.1
штиль 0 16 км ясно +27.2 +9.9 34 +28 +28 жарко 999.1
штиль 0 16 км ясно +25.5 +9.7 37 +26 +26 жарко 999.1
штиль 0 16 км ясно +24.2 +10.2 41 +25 +25 комфорт 999.1
штиль 0 16 км ясно +24.0 +10.6 43 +25 +25 комфорт 999.1
штиль 0 16 км ясно +26.0 +10.1 37 +27 +27 жарко 999.1
штиль 0 16 км ясно +25.4 +9.4 36 +26 +26 жарко 999.1
штиль 0 16 км ясно +25.4 +8.5 34 +26 +26 жарко 999.1
штиль 0 16 км ясно +23.5 +10.5 44 +25 +25 комфорт 999.1
Ю 2 16 км ясно +22.8 +10.7 46 +25 +25 комфорт 999.5
штиль 0 16 км ясно +22.3 +11.6 51 +25 +25 комфорт 999.5
штиль 0 16 км ясно +22.0 +12.4 54 +24 +24 комфорт 999.5
штиль 0 16 км ясно +21.7 +12.0 54 +24 +24 комфорт 999.5
штиль 0 16 км ясно +21.3 +12.4 57 +24 +24 комфорт 999.5
штиль 0 16 км ясно +21.5 +13.6 61 +24 +24 комфорт 999.5
штиль 0 16 км ясно +21.1 +13.2 61 +23 +23 комфорт 999.5 +21.1 +28.5
ЮВ 2 16 км ясно +20.4 +12.4 60 +23 +23 комфорт 999.8
штиль 0 16 км ясно +20.5 +13.7 65 +23 +23 комфорт 999.8
штиль 0 16 км ясно +20.2 +12.8 62 +22 +22 комфорт 999.8
штиль 0 16 км ясно +21.0 +11.5 55 +23 +23 комфорт 1000.1
штиль 0 16 км ясно +22.8 +10.0 44 +25 +25 комфорт 1000.1
штиль 0 16 км ясно +22.5 +10.5 47 +24 +24 комфорт 1000.1
штиль 0 16 км ясно +24.1 +9.9 41 +25 +27 комфорт 1000.5
штиль 0 16 км ясно +24.2 +9.8 40 +25 +27 комфорт 1000.8
штиль 0 16 км ясно +25.2 +10.1 39 +26 +28 жарко 1000.8
штиль 0 16 км ясно +26.5 +9.4 34 +27 +32 жарко 1000.8
Местоположение метеостанции Delano Municipal Airport: широта 35.7456 долгота -119.2365 высота над уровнем моря 97 м.
В архиве по умолчанию представлена погода в Делано за последние 1-2 суток. Обновление информации о фактической погоде в базе происходит ежечасно! Архивные данные за месяц целиком и за предыдущие месяцы Вы можете получить, выбрав интересующий диапазон дат из раскрывающегося списка и нажав кнопку "Ввод!".
Внимание! Архив погоды МЕТАР в базе сайта по станциям, не включенным в климатический монитор, хранится не более 60 дней. Нет смысла пытаться выбрать более раннюю дату.
*Определитесь, кто Вы:
Внимание! Время в таблицах - местное (без учета летнего времени). Для получения всемирного времени необходимо вычесть поправку, которая равна -8 ч.
Смотрите также архив погоды в соседних городах и на ближайших метеорологических станциях:
Партнеры нашего сайта:      
Пояснения к столбцам:
  • Ветер - указаны скорость ветра в м/с - средняя за 10 мин, порывы в срок и между сроками (в фигурных скобках) и направление, откуда дует ветер: С - северный,
  • СВ - северо-восточный, В - восточный, ЮВ - юго-восточный, Ю - южный, ЮЗ - юго-западный, З - западный, СЗ - северо-западный.
  • Видимость - горизонтальная дальность видимости в метрах или километрах. При видимости от 1 до 10 км при отсутствии осадков обычно наблюдается дымка, при ухудшении видимости до 1 км и менее - туман. В сухую погоду видимость может ухудшаться дымом, пылью или мглою.
  • Явления - указаны атмосферные явления, наблюдавшиеся в срок или в последний час перед сроком; фигурными скобками обозначены явления, наблюдавшиеся между сроками (за 1-3 часа до срока); квадратными скобками обозначены град или гололедные отложения с указанием их диаметра в мм.
  • Облачность - указаны через наклонную черту общая и нижняя облачность в баллах и высота нижней границы облаков в метрах; квадратными скобками обозначены формы облаков: Ci - перистые, Cs - перисто-слоистые, Cc - перисто-кучевые, Ac - высококучевые, As - высокослоистые, Sc - слоисто-кучевые, Ns - слоисто-дождевые, Cu - кучевые, Cb - кучево-дождевые. Подробнее классификацию облаков см. в Атласе облаков (PDF).
  • T - Температура воздуха - температура, измеренная на высоте 2 м над землей.
  • Td - Температура точки росы - температура, при понижении до которой содержащийся в воздухе водяной пар достигнет насыщения.
  • f - Относительная влажность воздуха - влажноcть воздуха, измеренная на высоте 2 м над землей.
  • Te - Эффективная температура - температура, которую ощущает одетый по сезону человек в тени. Характеристика душности погоды. При расчете учитывается влияние влажности воздуха и скорости ветра на теплоощущения человека.
  • Tes - Эффективная температура на солнце - температура, которую ощущает человек, с поправкой на солнечный нагрев. Характеристика знойности погоды. Зависит от высоты солнца над горизонтом, облачности и скорости ветра. Ночью, в пасмурную погоду, а также при ветре 12 м/с и более поправка равна нулю.
  • P - Атмосферное давление - приведенное к уровню моря атмосферное давление.
  • Po - Атмосферное давление - измеренное на уровне метеостанции атмосферное давление.
  • Tmin - Минимальная температура - минимум температуры воздуха на высоте 2 м над землей.
  • Tmax - Максимальная температура - максимум температуры воздуха на высоте 2 м над землей.
  • R - Количество осадков - Количество выпавших осадков за период времени, мм. При наведении курсора мыши на число - период времени, за который выпало указанное количество осадков.
  • R24 - Количество осадков - Количество выпавших осадков за 24 часа, мм.
  • S - Снежный покров - Высота снежного покрова, см. При наведении курсора мыши на число - состояние снежного покрова и степень покрытия местности в баллах.